GW2565 Weather Reports


Display with metric or nautical units.
time (UTC)temp
F
wind
direction
speed
MPH
gust
MPH
rain 1hr
in
rain 24hr
in
rain mn
in
humidity
%
barometer
mb
20260504185403 68 291 6.0 9.0 0.00 0.00 0.00 40 1012.5
20260504184859 68 12 2.0 3.0 0.00 0.00 0.00 40 1012.7
20260504184355 67 320 5.0 8.0 0.00 0.00 0.00 41 1012.8
20260504183851 69 222 3.0 9.0 0.00 0.00 0.00 41 1012.8
20260504183349 69 7 7.0 11.0 0.00 0.00 0.00 41 1012.7
20260504182846 69 3 1.0 5.0 0.00 0.00 0.00 43 1012.7
20260504182343 68 241 3.0 11.0 0.00 0.00 0.00 39 1012.7
20260504181839 69 258 4.0 7.0 0.00 0.00 0.00 39 1012.8
20260504181337 69 354 2.0 5.0 0.00 0.00 0.00 41 1013.1
20260504180836 69 352 5.0 6.0 0.00 0.00 0.00 40 1012.8
20260504180334 68 284 3.0 8.0 0.00 0.00 0.00 40 1013.3
20260504175832 68 237 5.0 11.0 0.00 0.00 0.00 40 1013.1
20260504175328 68 292 2.0 6.0 0.00 0.00 0.00 42 1013.1
20260504174827 68 242 3.0 8.0 0.00 0.00 0.00 43 1013.5
20260504174324 67 345 3.0 6.0 0.00 0.00 0.00 42 1013.5
20260504173821 68 32 2.0 7.0 0.00 0.00 0.00 43 1013.4
20260504173317 67 185 3.0 9.0 0.00 0.00 0.00 41 1013.6
20260504172814 68 340 3.0 6.0 0.00 0.00 0.00 40 1013.4
20260504172311 67 186 4.0 6.0 0.00 0.00 0.00 39 1013.3
20260504171807 67 253 3.0 9.0 0.00 0.00 0.00 40 1013.7
20260504171304 67 351 2.0 5.0 0.00 0.00 0.00 40 1013.5
20260504170801 66 310 6.0 7.0 0.00 0.00 0.00 41 1013.7
20260504170258 67 229 4.0 10.0 0.00 0.00 0.00 42 1013.7
20260504160216 64 316 4.0 6.0 0.00 0.00 0.00 41 1014.6
20260504151144 60 266 5.0 7.0 0.00 0.00 0.00 43 1014.9
20260504150641 60 299 3.0 10.0 0.00 0.00 0.00 44 1015.0
20260504150138 60 315 3.0 6.0 0.00 0.00 0.00 43 1015.0
20260504141107 59 217 6.0 10.0 0.00 0.00 0.00 45 1015.4
20260504140604 57 314 2.0 5.0 0.00 0.00 0.00 46 1015.0
20260504130528 57 341 3.0 9.0 0.00 0.00 0.00 45 1015.6
20260504110416 47 347 1.0 1.0 0.00 0.00 0.00 61 1016.1
20260504100332 42 1 0.0 1.0 0.00 0.00 0.00 66 1015.7
20260504081726 46 48 1.0 1.0 0.00 0.00 0.00 61 1015.7
20260504081222 45 24 0.0 5.0 0.00 0.00 0.00 60 1015.9
20260504080719 46 4 2.0 6.0 0.00 0.00 0.00 59 1015.8
20260504080215 46 135 1.0 3.0 0.00 0.00 0.00 58 1015.8
20260504070143 46 346 2.0 2.0 0.00 0.00 0.00 58 1015.8
20260504060103 47 14 0.0 7.0 0.00 0.00 0.00 57 1015.3
20260504050531 48 278 3.0 6.0 0.00 0.00 0.00 55 1015.3
20260504045525 47 339 1.0 3.0 0.00 0.00 0.00 56 1015.3
20260504045021 47 2 0.0 3.0 0.00 0.00 0.00 55 1015.4
20260504044518 47 4 0.0 2.0 0.00 0.00 0.00 56 1015.6
20260504044015 47 358 2.0 3.0 0.00 0.00 0.00 55 1015.3
20260504043512 47 5 0.0 5.0 0.00 0.00 0.00 55 1015.4
20260504043010 47 359 1.0 5.0 0.00 0.00 0.00 55 1015.2
20260504042506 47 356 1.0 2.0 0.00 0.00 0.00 56 1015.2
20260504042003 48 343 1.0 2.0 0.00 0.00 0.00 55 1015.1
20260504041459 47 359 0.0 3.0 0.00 0.00 0.00 55 1015.2
20260504040955 47 357 1.0 2.0 0.00 0.00 0.00 55 1015.3
20260504040453 47 47 2.0 5.0 0.00 0.00 0.00 54 1015.1
20260504035949 47 358 1.0 2.0 0.00 0.00 0.00 56 1015.1
20260504035446 47 7 2.0 2.0 0.00 0.00 0.00 54 1015.0
20260504034943 47 7 0.0 1.0 0.00 0.00 0.00 56 1015.1
20260504034440 46 5 0.0 2.0 0.00 0.00 0.00 55 1015.1
20260504033937 47 5 0.0 2.0 0.00 0.00 0.00 58 1015.1
20260504033435 46 207 1.0 1.0 0.00 0.00 0.00 58 1015.1
20260504032932 47 8 0.0 2.0 0.00 0.00 0.00 55 1015.1
20260504032429 47 8 0.0 2.0 0.00 0.00 0.00 55 1015.1
20260504031925 47 326 0.0 2.0 0.00 0.00 0.00 57 1015.1
20260504031422 47 322 1.0 1.0 0.00 0.00 0.00 55 1015.2
20260504030919 47 15 0.0 1.0 0.00 0.00 0.00 55 1015.2
20260504030416 47 25 0.0 2.0 0.00 0.00 0.00 56 1015.2
20260504025912 47 4 0.0 2.0 0.00 0.00 0.00 55 1015.0
20260504025409 47 3 0.0 2.0 0.00 0.00 0.00 57 1014.9
20260504024906 47 2 1.0 1.0 0.00 0.00 0.00 56 1015.1
20260504024403 47 3 1.0 1.0 0.00 0.00 0.00 54 1015.2
20260504023900 47 0 1.0 3.0 0.00 0.00 0.00 54 1015.1
20260504023356 46 356 1.0 2.0 0.00 0.00 0.00 57 1015.2
20260504022852 46 2 1.0 2.0 0.00 0.00 0.00 56 1015.2
20260504022349 46 3 0.0 1.0 0.00 0.00 0.00 57 1015.2
20260504021845 46 2 0.0 1.0 0.00 0.00 0.00 58 1015.1
20260504021343 46 31 0.0 2.0 0.00 0.00 0.00 58 1015.4
20260504020840 46 3 0.0 1.0 0.00 0.00 0.00 58 1015.0
20260504020336 46 2 0.0 1.0 0.00 0.00 0.00 57 1015.2
20260504015832 46 2 0.0 1.0 0.00 0.00 0.00 58 1015.2
20260504015329 45 2 0.0 1.0 0.00 0.00 0.00 58 1015.3
20260504014825 46 2 0.0 1.0 0.00 0.00 0.00 59 1015.1
20260504014321 46 3 0.0 0.0 0.00 0.00 0.00 57 1015.0
20260504013819 46 3 0.0 0.0 0.00 0.00 0.00 58 1015.2
20260504013317 46 3 0.0 0.0 0.00 0.00 0.00 57 1015.0
20260504012813 46 3 0.0 0.0 0.00 0.00 0.00 56 1015.0
20260504012311 46 3 0.0 0.0 0.00 0.00 0.00 56 1014.9
20260504011808 46 3 0.0 0.0 0.00 0.00 0.00 57 1014.8
20260504011304 46 3 0.0 0.0 0.00 0.00 0.00 58 1014.8
20260504010800 46 3 0.0 0.0 0.00 0.00 0.00 58 1015.0
20260504010256 46 3 0.0 0.0 0.00 0.00 0.00 56 1014.9
20260504005753 46 3 0.0 0.0 0.00 0.00 0.00 57 1015.0
20260504005250 47 3 0.0 0.0 0.00 0.00 0.00 54 1014.7
20260504004748 47 3 0.0 0.0 0.00 0.00 0.00 54 1014.9
20260504004245 47 3 0.0 0.0 0.00 0.00 0.00 54 1014.7
20260504003741 48 3 0.0 0.0 0.00 0.00 0.00 53 1014.9
20260504003238 48 3 0.0 1.0 0.00 0.00 0.00 53 1014.8
20260504002735 48 3 0.0 0.0 0.00 0.00 0.00 51 1014.5
20260504002232 49 3 0.0 1.0 0.00 0.00 0.00 53 1014.7
20260504001730 50 13 0.0 1.0 0.00 0.00 0.00 51 1014.5
20260504001226 50 9 0.0 2.0 0.00 0.00 0.00 49 1014.5
20260504000723 51 358 1.0 5.0 0.00 0.00 0.00 48 1014.4
20260504000220 51 333 2.0 3.0 0.00 0.00 0.00 47 1014.3
20260503235718 51 356 1.0 5.0 0.00 0.00 0.00 46 1014.5
20260503235215 51 331 3.0 3.0 0.00 0.00 0.00 47 1014.3
20260503234713 51 345 3.0 7.0 0.00 0.00 0.00 47 1014.3
20260503234211 51 19 2.0 6.0 0.00 0.00 0.00 49 1014.2
20260503233708 51 338 3.0 3.0 0.00 0.00 0.00 47 1014.3
20260503233203 51 2 0.0 2.0 0.00 0.00 0.00 48 1014.2
20260503232700 51 17 0.0 2.0 0.00 0.00 0.00 49 1014.2
20260503232157 51 17 0.0 2.0 0.00 0.00 0.00 48 1014.1
20260503231656 52 17 0.0 2.0 0.00 0.00 0.00 47 1014.3
20260503231151 52 35 0.0 1.0 0.00 0.00 0.00 50 1014.2
20260503230648 52 16 0.0 1.0 0.00 0.00 0.00 45 1014.2
20260503230145 53 347 2.0 2.0 0.00 0.00 0.00 46 1014.3
20260503225643 52 348 2.0 2.0 0.00 0.00 0.00 47 1014.5
20260503225143 52 1 2.0 2.0 0.00 0.00 0.00 46 1014.4
20260503224640 52 16 1.0 2.0 0.00 0.00 0.00 45 1014.3
20260503224138 52 348 2.0 2.0 0.00 0.00 0.00 47 1014.3
20260503223636 52 350 3.0 5.0 0.00 0.00 0.00 46 1014.3
20260503223132 52 323 3.0 6.0 0.00 0.00 0.00 45 1014.2
20260503222629 52 307 3.0 6.0 0.00 0.00 0.00 44 1014.2
20260503222127 53 316 4.0 6.0 0.00 0.00 0.00 45 1014.2
20260503221625 53 310 7.0 8.0 0.00 0.00 0.00 43 1014.2
20260503221122 54 340 2.0 6.0 0.00 0.00 0.00 43 1014.1
20260503220619 55 315 4.0 7.0 0.00 0.00 0.00 43 1014.0
20260503220115 55 315 2.0 7.0 0.00 0.00 0.00 41 1014.2
20260503215613 55 297 4.0 5.0 0.00 0.00 0.00 41 1014.0
20260503215109 53 50 2.0 6.0 0.00 0.00 0.00 43 1014.1
20260503214608 53 298 5.0 8.0 0.00 0.00 0.00 41 1014.3
20260503214103 53 332 3.0 6.0 0.00 0.00 0.00 40 1014.2
20260503213603 53 3 4.0 6.0 0.00 0.00 0.00 41 1014.0
20260503213058 53 321 3.0 10.0 0.00 0.00 0.00 43 1014.1
20260503212556 53 269 7.0 10.0 0.00 0.00 0.00 39 1014.1
20260503212053 55 315 6.0 8.0 0.00 0.00 0.00 38 1013.9
20260503211551 55 263 3.0 6.0 0.00 0.00 0.00 38 1014.0
20260503211045 55 290 5.0 8.0 0.00 0.00 0.00 38 1013.8
20260503210543 55 23 1.0 6.0 0.00 0.00 0.00 41 1013.9
20260503210038 54 294 3.0 6.0 0.00 0.00 0.00 39 1013.9
20260503205535 53 291 4.0 7.0 0.00 0.00 0.00 39 1013.9
20260503205032 54 320 4.0 7.0 0.00 0.00 0.00 37 1013.6
20260503204529 55 273 4.0 9.0 0.00 0.00 0.00 37 1013.4
20260503204026 57 279 4.0 8.0 0.00 0.00 0.00 35 1013.8
20260503203523 55 272 4.0 8.0 0.00 0.00 0.00 38 1013.9
20260503203020 55 285 4.0 7.0 0.00 0.00 0.00 35 1013.6
20260503202518 53 342 4.0 6.0 0.00 0.00 0.00 37 1014.0
20260503202016 54 335 5.0 6.0 0.00 0.00 0.00 38 1014.0
20260503201514 54 336 3.0 5.0 0.00 0.00 0.00 37 1013.8
20260503201011 54 327 3.0 7.0 0.00 0.00 0.00 37 1013.9
20260503200507 53 292 3.0 5.0 0.00 0.00 0.00 37 1014.0
20260503200004 53 304 4.0 6.0 0.00 0.00 0.00 37 1014.3
20260503195501 53 36 4.0 6.0 0.00 0.00 0.00 38 1014.1
20260503194957 55 274 3.0 9.0 0.00 0.00 0.00 37 1013.9
20260503194455 54 339 7.0 10.0 0.00 0.00 0.00 37 1014.1
20260503193949 55 351 2.0 5.0 0.00 0.00 0.00 39 1014.3
20260503193446 54 328 5.0 6.0 0.00 0.00 0.00 39 1014.4
20260503192941 52 262 8.0 10.0 0.00 0.00 0.00 38 1014.6
20260503192438 53 285 7.0 8.0 0.00 0.00 0.00 38 1014.4
20260503191933 53 270 7.0 8.0 0.00 0.00 0.00 40 1014.5
20260503191431 54 236 2.0 8.0 0.00 0.00 0.00 40 1014.7
20260503190927 51 316 4.0 8.0 0.00 0.00 0.00 39 1014.7
20260503190425 51 314 5.0 8.0 0.00 0.00 0.00 40 1014.6
20260503185922 52 287 4.0 8.0 0.00 0.00 0.00 39 1014.8